[[{"header":{"parameterUnit":"m.s-1","parameterCategory":1,"la1":30.2991,"la2":30.254,"lo1":-89.0895,"lo2":-89.0444,"dy":0.0017,"dx":0.0017,"nx":28,"ny":28,"refTime":"2024-02-13T03:00:00:Z","depth":0,"parameterNumber":2,"parameterNumberName":"U-component_of_WINDS"},"data":[0,0,0,0,0,0,0,0,0,0,0,0,0,0,0,0,0,0,0,0,0,0,0,0,0,0,0,0,0,0,0,0,0,0,0,0,0,0,0,0,0,0,0,0,0,0,0,0,0,0,0,0,0,0,0,0,0,0,-4.2596,-4.2596,0,-4.2641,-4.2642,-4.2642,-4.2563,-4.2561,-4.2558,-4.2555,-4.2602,-4.2605,-4.2609,0,0,0,0,0,0,0,0,0,0,0,0,0,-4.2441,-4.2444,-4.2596,-4.2596,-4.2597,-4.2641,-4.2642,-4.2642,-4.2564,-4.256,-4.2557,-4.2554,-4.2601,-4.2605,-4.2609,0,0,0,0,0,0,0,0,0,0,0,0,0,-4.2499,-4.2445,-4.2596,-4.2563,-4.2561,-4.2641,-4.2642,-4.2642,-4.2564,-4.256,-4.2556,-4.2553,-4.2599,-4.2605,-4.261,-4.2724,0,0,-4.2627,-4.2629,0,0,0,0,0,0,0,0,-4.2496,-4.2505,-4.2567,-4.2565,-4.2563,-4.2592,-4.2604,-4.267,-4.2565,-4.2563,-4.2555,-4.2551,-4.2602,-4.2607,-4.2624,-4.2726,-4.2728,-4.2628,-4.2631,-4.2633,-4.2635,0,0,0,0,0,0,0,-4.2492,-4.2503,-4.2614,-4.2568,-4.2566,-4.2546,-4.255,-4.2616,-4.2604,-4.2563,-4.2557,-4.2564,-4.26,-4.2619,-4.2625,-4.2729,-4.2627,-4.2632,-4.2636,-4.2638,-4.2927,-4.2931,0,0,0,0,0,0,-4.2492,-4.25,-4.2612,-4.2615,-4.2519,-4.2552,-4.2556,-4.2587,-4.2603,-4.2602,-4.2567,-4.256,-4.2612,-4.2618,-4.2626,-4.2761,-4.2633,-4.2638,-4.2642,-4.2923,-4.2928,-4.2933,0,0,0,0,0,0,-4.2489,-4.2503,-4.261,-4.2556,-4.2568,-4.2559,-4.2594,-4.259,-4.2609,-4.2606,-4.2604,-4.2589,-4.2609,-4.2618,-4.27,-4.2761,-4.2641,-4.2646,-4.2918,-4.2924,-4.293,-4.3031,0,0,0,0,0,0,-4.2485,-4.2502,-4.2546,-4.2558,-4.2571,-4.2684,-4.2598,-4.2594,-4.2619,-4.261,-4.2626,-4.2625,-4.2606,-4.2693,-4.2706,-4.2767,-4.265,-4.2912,-4.2921,-4.2928,-4.3022,-4.304,-4.3056,0,0,0,0,0,-4.248,-4.2573,-4.2549,-4.2562,-4.2626,-4.2688,-4.2696,-4.2672,-4.2624,-4.2668,-4.2666,-4.2625,-4.2753,-4.2702,-4.2716,-4.2779,-4.2908,-4.2918,-4.2928,-4.3015,-4.3037,-4.3055,0,0,0,0,0,0,-4.2568,-4.2573,-4.2547,-4.2646,-4.2667,-4.2675,-4.2729,-4.2696,-4.2732,-4.2722,-4.2691,-4.2695,-4.2784,-4.279,-4.2733,-4.2891,-4.2822,-4.2835,-4.2884,-4.2904,-4.2921,-4.2917,-4.2655,0,0,0,0,0,-4.2599,-4.265,-4.2651,-4.2739,-4.2751,-4.2738,-4.2765,-4.2745,-4.2765,-4.2774,-4.2778,-4.28,-4.2844,-4.2875,-4.2916,-4.3023,-4.3025,-4.3074,-4.309,-4.3104,-4.3116,-4.3172,-4.3194,-4.2965,-4.2965,-4.2965,0,0,-4.2664,-4.2673,-4.2707,-4.2757,-4.2771,-4.2823,-4.2746,-4.2805,-4.2844,-4.2783,-4.286,-4.2865,-4.2886,-4.2982,-4.3024,-4.2989,-4.318,-4.3116,-4.3127,-4.3132,-4.3185,-4.3206,-4.3226,-4.2971,-4.297,-4.2969,0,0,-4.2808,-4.282,-4.2894,-4.291,-4.2932,-4.2923,-4.2941,-4.2954,-4.2954,-4.3032,-4.2986,-4.3032,-4.311,-4.3128,-4.3147,-4.3298,-4.3262,-4.3313,-4.34,-4.3455,-4.3473,-4.3489,-4.3543,-4.3563,-4.3324,-4.3325,-4.3325,0,-4.2886,-4.2963,-4.2936,-4.2999,-4.3022,-4.2969,-4.3043,-4.306,-4.3095,-4.3112,-4.3073,-4.317,-4.3181,-4.3279,-4.3316,-4.3334,-4.3353,-4.3311,-4.3473,-4.3489,-4.3503,-4.3554,-4.3574,-4.3331,-4.333,-4.3329,-4.3329,0,-4.3057,-4.3112,-4.3169,-4.3204,-4.3234,-4.3302,-4.3285,-4.3318,-4.3296,-4.3291,-4.3371,-4.3382,-4.3425,-4.3447,-4.3426,-4.3542,-4.352,-4.3478,-4.3408,-4.3531,-4.3579,-4.3598,-4.3339,-4.3337,-4.3335,-4.3334,0,0,-4.3258,-4.3278,-4.3299,-4.3314,-4.3335,-4.3376,-4.3442,-4.3484,-4.3513,-4.3539,-4.3593,-4.366,-4.3621,-4.3643,-4.3623,-4.3672,-4.3791,-4.3624,-4.3624,-4.3654,-4.392,-4.3952,-4.3975,-4.3767,-4.3771,-4.3774,-4.3918,0,-4.3402,-4.3515,-4.3493,-4.3604,-4.3654,-4.3604,-4.3661,-4.368,-4.3678,-4.3719,-4.3716,-4.3765,-4.3709,-4.3722,-4.3768,-4.3767,-4.3844,-4.3756,-4.3817,-4.382,-4.3813,-4.4,-4.4033,-4.417,-4.3937,-4.394,-4.3942,0,-4.3584,-4.3617,-4.3733,-4.3745,-4.3765,-4.3817,-4.3854,-4.3894,-4.3915,-4.3909,-4.3934,-4.3905,-4.397,-4.39,-4.399,-4.393,-4.3954,-4.3957,-4.3962,-4.3966,-4.3888,-4.4009,-4.4212,-4.4233,-4.3971,-4.3969,-4.3967,0,-4.3719,-4.3792,-4.3871,-4.3885,-4.3902,-4.3939,-4.3948,-4.3965,-4.3991,-4.4023,-4.4039,-4.4079,-4.41,-4.4131,-4.4113,-4.4064,-4.4206,-4.4134,-4.4203,-4.4204,-4.4235,-4.4233,-4.4445,-4.4251,-4.4251,-4.425,-4.425,0,-4.3881,-4.3954,-4.3931,-4.398,-4.406,-4.4033,-4.4113,-4.4116,-4.4131,-4.4179,-4.4139,-4.4185,-4.4158,-4.4202,-4.4189,-4.4265,-4.4275,-4.4272,-4.4268,-4.4276,-4.4276,-4.429,-4.428,-4.4256,-4.4254,-4.4253,-4.4252,0,-4.4045,-4.4033,-4.4115,-4.4125,-4.4128,-4.4187,-4.4195,-4.424,-4.4234,-4.4295,-4.4308,-4.4299,-4.4349,-4.4334,-4.4388,-4.4379,-4.4475,-4.4459,-4.4468,-4.4464,-4.4533,-4.4527,-4.4761,-4.479,-4.4579,-4.4581,-4.4582,0,-4.4149,-4.4204,-4.4219,-4.4248,-4.426,-4.4308,-4.4335,-4.4311,-4.434,-4.4368,-4.441,-4.4456,-4.4491,-4.4573,-4.4571,-4.4612,-4.4596,-4.4675,-4.4601,-4.4608,-4.4596,-4.4593,-4.4598,-4.469,-4.4692,-4.4694,-4.4696,0,-4.4336,-4.4327,-4.4367,-4.4405,-4.4438,-4.4467,-4.4493,-4.4519,-4.4497,-4.4532,-4.4582,-4.461,-4.4664,-4.471,-4.4748,-4.4756,-4.4723,-4.4719,-4.4737,-4.4745,-4.4748,-4.4747,-4.4508,-4.4713,-4.4712,-4.471,-4.4709,-4.4709,-4.4472,-4.4519,-4.4536,-4.4582,-4.4599,-4.4624,-4.4666,-4.4666,-4.4707,-4.475,-4.4734,-4.4791,-4.481,-4.4856,-4.487,-4.4915,-4.4884,-4.491,-4.4917,-4.4924,-4.4932,-4.4742,-4.4921,-4.4921,-4.492,-4.492,-4.492,0,-4.4656,-4.4665,-4.4708,-4.4744,-4.4781,-4.4746,-4.4772,-4.4804,-4.4856,-4.4876,-4.4912,-4.4969,-4.5014,-4.5016,-4.5058,-4.5093,-4.5079,-4.5105,-4.5102,-4.5104,-4.4957,-4.4937,-4.5116,-4.5116,-4.5116,-4.5116,-4.5115,-4.5115,-4.4756,-4.4832,-4.4826,-4.491,-4.4918,-4.4974,-4.4992,-4.5014,-4.503,-4.5097,-4.5133,-4.5134,-4.5148,-4.519,-4.5229,-4.5228,-4.5245,-4.5278,-4.5271,-4.5134,-4.5114,-4.5096,-4.5077,-4.5282,-4.5282,-4.5414,-4.5415,-4.5416]},{"header":{"parameterUnit":"m.s-1","parameterCategory":1,"la1":30.2991,"la2":30.254,"lo1":-89.0895,"lo2":-89.0444,"dy":0.0017,"dx":0.0017,"nx":28,"ny":28,"refTime":"2024-02-13T03:00:00:Z","depth":0,"parameterNumber":3,"parameterNumberName":"V-component_of_WINDS"},"data":[0,0,0,0,0,0,0,0,0,0,0,0,0,0,0,0,0,0,0,0,0,0,0,0,0,0,0,0,0,0,0,0,0,0,0,0,0,0,0,0,0,0,0,0,0,0,0,0,0,0,0,0,0,0,0,0,0,0,-1.5952,-1.5952,0,-1.5947,-1.5947,-1.5947,-1.5908,-1.5907,-1.5906,-1.5905,-1.5901,-1.5901,-1.5902,0,0,0,0,0,0,0,0,0,0,0,0,0,-1.5924,-1.5925,-1.5952,-1.5952,-1.5952,-1.5948,-1.5947,-1.5947,-1.5908,-1.5907,-1.5905,-1.5904,-1.59,-1.5901,-1.5902,0,0,0,0,0,0,0,0,0,0,0,0,0,-1.593,-1.5925,-1.5952,-1.5931,-1.5929,-1.5948,-1.5947,-1.5947,-1.5908,-1.5907,-1.5905,-1.5904,-1.59,-1.5901,-1.5902,-1.594,0,0,-1.5906,-1.5907,0,0,0,0,0,0,0,0,-1.593,-1.5931,-1.5934,-1.5933,-1.5931,-1.5927,-1.5936,-1.5945,-1.5908,-1.5916,-1.5905,-1.5903,-1.5911,-1.5911,-1.5913,-1.594,-1.5939,-1.5906,-1.5907,-1.5908,-1.5908,0,0,0,0,0,0,0,-1.5929,-1.5931,-1.595,-1.5934,-1.5932,-1.5922,-1.5921,-1.5938,-1.5922,-1.5915,-1.5913,-1.5913,-1.5909,-1.5912,-1.5913,-1.5939,-1.5906,-1.5907,-1.5908,-1.5909,-1.5995,-1.5996,0,0,0,0,0,0,-1.5932,-1.5931,-1.595,-1.595,-1.5927,-1.5924,-1.5923,-1.5929,-1.5921,-1.5919,-1.5914,-1.5911,-1.5911,-1.5912,-1.5913,-1.5955,-1.5908,-1.5909,-1.5909,-1.5993,-1.5995,-1.5997,0,0,0,0,0,0,-1.5931,-1.5934,-1.595,-1.594,-1.5941,-1.5926,-1.5934,-1.593,-1.5933,-1.592,-1.5917,-1.592,-1.591,-1.5911,-1.5933,-1.5954,-1.5909,-1.591,-1.5991,-1.5994,-1.5996,-1.6041,0,0,0,0,0,0,-1.5931,-1.5934,-1.5948,-1.594,-1.5942,-1.5971,-1.5935,-1.5931,-1.5935,-1.5931,-1.5925,-1.5923,-1.5909,-1.5931,-1.5934,-1.5955,-1.5911,-1.5989,-1.5992,-1.5995,-1.6037,-1.6044,-1.605,0,0,0,0,0,-1.593,-1.5962,-1.5949,-1.5952,-1.5959,-1.5973,-1.5973,-1.5956,-1.5937,-1.5951,-1.5943,-1.5923,-1.5951,-1.5934,-1.5937,-1.5959,-1.5988,-1.5992,-1.5995,-1.6034,-1.6043,-1.605,0,0,0,0,0,0,-1.5973,-1.596,-1.5947,-1.5977,-1.5976,-1.5966,-1.5983,-1.5966,-1.5971,-1.5967,-1.5946,-1.5945,-1.597,-1.5966,-1.5947,-1.5993,-1.5966,-1.597,-1.5995,-1.6003,-1.6009,-1.601,-1.5912,0,0,0,0,0,-1.5986,-1.5998,-1.5986,-1.6014,-1.6014,-1.5999,-1.6004,-1.5991,-1.5989,-1.5989,-1.5982,-1.5982,-1.599,-1.5996,-1.6004,-1.6036,-1.6034,-1.6052,-1.6059,-1.6064,-1.6068,-1.6084,-1.6092,-1.6008,-1.6008,-1.6008,0,0,-1.6014,-1.6008,-1.6017,-1.6022,-1.602,-1.6033,-1.5999,-1.6014,-1.6023,-1.5991,-1.6011,-1.6006,-1.6004,-1.6031,-1.6043,-1.6029,-1.6091,-1.6069,-1.6073,-1.6074,-1.6088,-1.6096,-1.6103,-1.601,-1.601,-1.601,0,0,-1.6069,-1.6066,-1.6088,-1.6087,-1.6084,-1.6073,-1.6078,-1.6071,-1.6066,-1.6086,-1.6062,-1.6072,-1.6088,-1.6087,-1.6088,-1.6142,-1.6123,-1.6145,-1.6179,-1.6194,-1.6201,-1.6207,-1.6225,-1.6232,-1.6149,-1.6149,-1.6149,0,-1.6103,-1.6121,-1.6102,-1.6118,-1.6121,-1.6092,-1.6114,-1.6113,-1.6113,-1.6115,-1.6099,-1.6118,-1.6114,-1.614,-1.6153,-1.6156,-1.616,-1.6146,-1.6202,-1.6207,-1.6212,-1.623,-1.6237,-1.6151,-1.6151,-1.6151,-1.6151,0,-1.6163,-1.6176,-1.6194,-1.6193,-1.6198,-1.6217,-1.62,-1.6207,-1.6193,-1.6184,-1.6204,-1.6199,-1.6204,-1.6209,-1.6196,-1.6233,-1.6224,-1.6205,-1.6178,-1.6223,-1.6239,-1.6246,-1.6155,-1.6154,-1.6153,-1.6153,0,0,-1.6247,-1.6234,-1.6241,-1.624,-1.6234,-1.6244,-1.6261,-1.6265,-1.6271,-1.6272,-1.6285,-1.6298,-1.6281,-1.6282,-1.6269,-1.6283,-1.6324,-1.6262,-1.6261,-1.6273,-1.6364,-1.6378,-1.6386,-1.6312,-1.6313,-1.6314,-1.6364,0,-1.63,-1.6328,-1.6311,-1.6342,-1.6353,-1.6325,-1.634,-1.6337,-1.6329,-1.6337,-1.6327,-1.6337,-1.6313,-1.6313,-1.6326,-1.6317,-1.6342,-1.6313,-1.6324,-1.6325,-1.6325,-1.6395,-1.641,-1.6457,-1.637,-1.6371,-1.6372,0,-1.6366,-1.6368,-1.6401,-1.6391,-1.6395,-1.6408,-1.641,-1.6418,-1.6415,-1.6408,-1.6409,-1.6391,-1.6407,-1.6379,-1.64,-1.638,-1.6384,-1.638,-1.6381,-1.6382,-1.6351,-1.6397,-1.6472,-1.6479,-1.6382,-1.6381,-1.638,0,-1.6423,-1.6435,-1.6455,-1.6455,-1.6444,-1.6454,-1.6451,-1.6445,-1.6449,-1.6451,-1.6453,-1.6456,-1.6459,-1.6462,-1.6445,-1.6427,-1.6468,-1.6439,-1.6462,-1.6463,-1.6472,-1.6472,-1.6549,-1.6475,-1.6475,-1.6475,-1.6475,0,-1.6484,-1.6505,-1.648,-1.6493,-1.6515,-1.6494,-1.6516,-1.6509,-1.6504,-1.6515,-1.6491,-1.6501,-1.6479,-1.6487,-1.6474,-1.6493,-1.6494,-1.6488,-1.6485,-1.6491,-1.6491,-1.6493,-1.6489,-1.6477,-1.6476,-1.6476,-1.6475,0,-1.6552,-1.6537,-1.6557,-1.6545,-1.6542,-1.6559,-1.6548,-1.6559,-1.6548,-1.6562,-1.6564,-1.6547,-1.6555,-1.6539,-1.6545,-1.6536,-1.6563,-1.6554,-1.6564,-1.6561,-1.6585,-1.6583,-1.6666,-1.6675,-1.6595,-1.6596,-1.6597,0,-1.6592,-1.6607,-1.6596,-1.6601,-1.6599,-1.6607,-1.661,-1.659,-1.6594,-1.659,-1.6601,-1.6607,-1.661,-1.6624,-1.6613,-1.6617,-1.6608,-1.6637,-1.6608,-1.6613,-1.6608,-1.6607,-1.6608,-1.6642,-1.6643,-1.6644,-1.6645,0,-1.6665,-1.6656,-1.6661,-1.6663,-1.6667,-1.6668,-1.6668,-1.6673,-1.6651,-1.6657,-1.6664,-1.6667,-1.6672,-1.6678,-1.6679,-1.6675,-1.6656,-1.6654,-1.6659,-1.6665,-1.667,-1.6667,-1.6579,-1.6652,-1.6651,-1.6651,-1.665,-1.665,-1.672,-1.6731,-1.6725,-1.6731,-1.6728,-1.6728,-1.6737,-1.6727,-1.6733,-1.6735,-1.6723,-1.6733,-1.6727,-1.6727,-1.6724,-1.6732,-1.6719,-1.6727,-1.6729,-1.6731,-1.6735,-1.6669,-1.6732,-1.6732,-1.6732,-1.6731,-1.6731,0,-1.679,-1.6784,-1.679,-1.6789,-1.6794,-1.6775,-1.6773,-1.6779,-1.6787,-1.6784,-1.6788,-1.6796,-1.6801,-1.6789,-1.6793,-1.6801,-1.6792,-1.6802,-1.6801,-1.6801,-1.6747,-1.6741,-1.6809,-1.6809,-1.6809,-1.6809,-1.6809,-1.6809,-1.6828,-1.6846,-1.6836,-1.6852,-1.6846,-1.6855,-1.6856,-1.6855,-1.6852,-1.6862,-1.6866,-1.6858,-1.6851,-1.6853,-1.6857,-1.6853,-1.6856,-1.6869,-1.6862,-1.6812,-1.6805,-1.6797,-1.6792,-1.6869,-1.687,-1.6916,-1.6916,-1.6916]}]]